Weather History for West Point, VA

Change the Weather History Date:

Thursday, May 29, 2014

  Actual Average (KRIC) Record (KRIC)
Temperature  
Mean Temperature 64 °F 70 °F  
Max Temperature 66 °F 81 °F 98 °F (1941)
Min Temperature 62 °F 59 °F 37 °F (1936)
Degree Days  
Heating Degree Days 1 1  
Month to date heating degree days 72  
Since 1 July heating degree days 3764  
Cooling Degree Days 0 6  
Month to date cooling degree days 104  
Year to date cooling degree days 146  
Growing Degree Days 14 (Base 50)    
Moisture  
Dew Point 59 °F    
Average Humidity 84    
Maximum Humidity 90    
Minimum Humidity 74    
Precipitation  
Precipitation 0.01 in 0.13 in 1.71 in (1984)
Month to date precipitation 3.52  
Year to date precipitation 16.63  
Snow  
Snow 0.00 in 0.00 in 0.00 in (2002)
Month to date snowfall 0.0  
Since 1 July snowfall 10.3  
Snow Depth -    
Sea Level Pressure  
Sea Level Pressure 30.14 in    
Wind  
Wind Speed 7 mph (ENE)    
Max Wind Speed 15 mph    
Max Gust Speed 21 mph    
Visibility 9 miles    
Events      
T = Trace of Precipitation, MM = Missing Value Source: NWS Daily Summary

Daily Weather History Graph

Daily Weather History Graph

Search for Another Location

Airport:

Trip Planner

Search our weather history database for the weather conditions in past years. The results will help you decide how hot, cold, wet, or windy it might be!

Date:

Astronomy

May. 29, 2014 Rise Set
Actual Time 5:48 AM EDT 8:20 PM EDT
Civil Twilight 5:18 AM EDT 8:50 PM EDT
Nautical Twilight 4:40 AM EDT 9:28 PM EDT
Astronomical Twilight 3:59 AM EDT 10:10 PM EDT
Moon 6:39 AM EDT (5/29) 9:10 PM EDT (5/29)
Length of Visible Light 15h 32m
Length of Day
14h 31m
New Moon, 1% of the Moon is Illuminated
May 29
New Moon
Jun 5
First Quarter
Jun 13
Full
Jun 19
Last Quarter
Jun 27
New

Hourly Weather History & Observations

Time (EDT) Temp. Dew Point Humidity Pressure Visibility Wind Dir Wind Speed Gust Speed Precip Events Conditions
12:15 AM 66.0 °F 62.8 °F 89% 30.06 in 10.0 mi East 15.0 mph 20.7 mph N/A   Overcast
12:35 AM 65.7 °F 62.2 °F 89% 30.07 in 10.0 mi ENE 8.1 mph - 0.01 in   Overcast
12:55 AM 64.9 °F 61.5 °F 89% 30.08 in 10.0 mi ENE 11.5 mph - 0.01 in   Overcast
1:15 AM 64.8 °F 61.2 °F 88% 30.08 in 10.0 mi ENE 9.2 mph - N/A   Overcast
1:35 AM 64.6 °F 60.8 °F 88% 30.09 in 10.0 mi East 6.9 mph - N/A   Overcast
1:55 AM 64.6 °F 60.8 °F 88% 30.09 in 10.0 mi East 8.1 mph - N/A   Overcast
2:15 AM 64.4 °F 60.4 °F 87% 30.09 in 7.0 mi East 8.1 mph - N/A   Overcast
2:35 AM 63.7 °F 60.1 °F 88% 30.09 in 10.0 mi East 8.1 mph - N/A   Overcast
2:55 AM 63.7 °F 59.9 °F 87% 30.09 in 10.0 mi East 8.1 mph - N/A   Overcast
3:15 AM 63.5 °F 59.9 °F 88% 30.09 in 7.0 mi East 9.2 mph - N/A   Overcast
3:35 AM 63.3 °F 59.9 °F 89% 30.09 in 10.0 mi ENE 4.6 mph - N/A   Overcast
3:55 AM 63.1 °F 59.9 °F 89% 30.09 in 10.0 mi ENE 4.6 mph - N/A   Overcast
4:15 AM 63.0 °F 59.5 °F 89% 30.10 in 7.0 mi ENE 4.6 mph - N/A   Overcast
4:35 AM 63.0 °F 59.9 °F 90% 30.09 in 4.0 mi East 4.6 mph - N/A   Overcast
5:15 AM 62.6 °F 59.4 °F 89% 30.10 in 4.0 mi ENE 5.8 mph - N/A   Overcast
5:35 AM 62.6 °F 59.5 °F 90% 30.10 in 10.0 mi ENE 3.5 mph - N/A   Overcast
5:55 AM 62.6 °F 59.4 °F 89% 30.11 in 5.0 mi East 4.6 mph - N/A   Overcast
6:15 AM 62.6 °F 59.4 °F 89% 30.11 in 7.0 mi ENE 4.6 mph - N/A   Overcast
6:35 AM 62.6 °F 59.5 °F 90% 30.11 in 7.0 mi NE 3.5 mph - N/A   Overcast
6:55 AM 62.6 °F 59.5 °F 90% 30.12 in 10.0 mi ENE 4.6 mph - N/A   Overcast
7:15 AM 63.0 °F 59.9 °F 90% 30.12 in 10.0 mi ENE 4.6 mph - N/A   Overcast
7:35 AM 63.5 °F 59.7 °F 87% 30.13 in 10.0 mi East 5.8 mph - N/A   Overcast
7:55 AM 63.7 °F 59.9 °F 87% 30.13 in 10.0 mi ENE 4.6 mph - N/A   Overcast
8:15 AM 63.7 °F 59.9 °F 87% 30.14 in 7.0 mi NE 3.5 mph - N/A   Overcast
8:35 AM 63.7 °F 60.1 °F 88% 30.14 in 5.0 mi Calm Calm - N/A   Overcast
8:55 AM 63.9 °F 60.3 °F 88% 30.15 in 3.0 mi ENE 3.5 mph - N/A   Overcast
9:15 AM 63.9 °F 60.3 °F 88% 30.16 in 7.0 mi ENE 4.6 mph - N/A   Overcast
9:35 AM 64.4 °F 60.6 °F 88% 30.16 in 7.0 mi East 6.9 mph - N/A   Overcast
9:55 AM 64.6 °F 60.1 °F 85% 30.16 in 10.0 mi East 6.9 mph - N/A   Overcast
10:15 AM 64.8 °F 59.9 °F 84% 30.16 in 7.0 mi East 5.8 mph - N/A   Overcast
10:35 AM 64.6 °F 60.3 °F 86% 30.17 in 7.0 mi ENE 5.8 mph - N/A   Overcast
10:55 AM 65.3 °F 60.4 °F 84% 30.17 in 10.0 mi East 5.8 mph - N/A   Overcast
11:15 AM 65.3 °F 60.1 °F 83% 30.18 in 10.0 mi East 3.5 mph - N/A   Overcast
11:35 AM 65.3 °F 59.7 °F 82% 30.19 in 10.0 mi ENE 6.9 mph - N/A   Overcast
11:55 AM 65.8 °F 59.0 °F 79% 30.19 in 10.0 mi ENE 5.8 mph - N/A   Overcast
12:15 PM 66.2 °F 59.2 °F 78% 30.18 in 10.0 mi East 6.9 mph - N/A   Overcast
12:35 PM 66.9 °F 59.4 °F 77% 30.19 in 10.0 mi ENE 5.8 mph - N/A   Overcast
12:55 PM 66.7 °F 58.3 °F 74% 30.19 in 10.0 mi East 3.5 mph - N/A   Overcast
1:15 PM 66.6 °F 58.8 °F 76% 30.19 in 10.0 mi East 3.5 mph - N/A   Overcast
1:35 PM 66.2 °F 58.6 °F 77% 30.18 in 10.0 mi East 6.9 mph - N/A   Overcast
2:15 PM 66.4 °F 58.6 °F 76% 30.18 in 10.0 mi East 6.9 mph - N/A   Overcast
2:35 PM 66.4 °F 58.5 °F 76% 30.18 in 10.0 mi ENE 4.6 mph - N/A   Overcast
2:55 PM 65.8 °F 60.1 °F 82% 30.17 in 10.0 mi NNE 4.6 mph - N/A   Overcast
3:15 PM 65.5 °F 59.9 °F 82% 30.17 in 10.0 mi NE 3.5 mph - N/A   Overcast
3:35 PM 65.3 °F 60.1 °F 83% 30.16 in 10.0 mi NNE 4.6 mph - N/A   Overcast
3:55 PM 65.7 °F 60.6 °F 84% 30.16 in 10.0 mi NE 4.6 mph - N/A   Overcast
4:15 PM 66.4 °F 59.5 °F 79% 30.16 in 10.0 mi East 8.1 mph - N/A   Overcast
4:35 PM 66.0 °F 59.0 °F 78% 30.15 in 7.0 mi East 5.8 mph - N/A   Overcast
4:55 PM 65.8 °F 58.8 °F 78% 30.14 in 10.0 mi East 6.9 mph - N/A   Overcast
5:15 PM 65.7 °F 58.3 °F 77% 30.14 in 10.0 mi East 8.1 mph - N/A   Overcast
5:35 PM 65.5 °F 58.5 °F 78% 30.14 in 10.0 mi ENE 6.9 mph - N/A   Overcast
5:55 PM 65.3 °F 58.1 °F 77% 30.14 in 10.0 mi ENE 6.9 mph - N/A   Overcast
6:15 PM 65.3 °F 58.3 °F 78% 30.14 in 10.0 mi East 8.1 mph - N/A   Overcast
6:35 PM 65.1 °F 58.3 °F 78% 30.14 in 10.0 mi ESE 5.8 mph - N/A   Overcast
6:55 PM 64.8 °F 58.3 °F 79% 30.14 in 10.0 mi ESE 5.8 mph - N/A   Overcast
7:15 PM 64.4 °F 57.7 °F 79% 30.14 in 7.0 mi East 5.8 mph - N/A   Overcast
7:35 PM 64.0 °F 57.9 °F 80% 30.14 in 10.0 mi East 5.8 mph - N/A   Overcast
7:55 PM 63.9 °F 57.7 °F 80% 30.14 in 10.0 mi East 4.6 mph - N/A   Overcast
8:15 PM 63.7 °F 58.1 °F 82% 30.14 in 10.0 mi East 4.6 mph - N/A   Overcast
8:35 PM 63.3 °F 57.6 °F 81% 30.14 in 10.0 mi East 3.5 mph - N/A   Overcast
8:55 PM 63.1 °F 57.7 °F 83% 30.15 in 10.0 mi East 3.5 mph - N/A   Overcast
9:15 PM 63.1 °F 58.1 °F 84% 30.15 in 10.0 mi Calm Calm - N/A   Overcast
9:55 PM 63.1 °F 58.3 °F 84% 30.15 in 10.0 mi East 3.5 mph - N/A   Overcast
10:15 PM 62.8 °F 58.1 °F 85% 30.16 in 10.0 mi Calm Calm - N/A   Overcast
10:35 PM 62.8 °F 58.1 °F 85% 30.16 in 10.0 mi Calm Calm - N/A   Overcast
10:55 PM 63.0 °F 58.5 °F 85% 30.15 in 10.0 mi East 3.5 mph - N/A   Overcast
11:15 PM 63.0 °F 58.5 °F 85% 30.14 in 10.0 mi East 3.5 mph - N/A   Overcast
11:35 PM 63.1 °F 58.5 °F 85% 30.15 in 10.0 mi East 3.5 mph - N/A   Overcast